Tracking 29892 objects as of 21-Nov-2024
HD Live streaming from Space Station
objects crossing your sky now

ONEWEB-0629

Track ONEWEB-0629 now!
10-day predictions
ONEWEB-0629 is classified as:


NORAD ID: 55170
Int'l Code: 2023-004AG
Perigee: 1,199.4 km
Apogee: 1,202.3 km
Inclination: 87.9 °
Period: 109.3 minutes
Semi major axis: 7571 km
RCS: Unknown
Launch date: January 10, 2023
Source: United Kingdom (UK)
Launch site: AIR FORCE WESTERN TEST RANGE (AFWTR)
Your satellite tracking list
Your tracking list is empty




NASA's NSSDC Master Catalog

Two Line Element Set (TLE):
1 55170U 23004AG  24325.41573032  .00000089  00000-0  19510-3 0  9994
2 55170  87.9074 120.1684 0001947  97.7154 262.4198 13.17652300 92024
Source of the keplerian elements: AFSPC